Weather History for KGLR - February, 2012

Change the Weather History Date:

Saturday, February 25, 2012

  Actual Average Record
Temperature  
Mean Temperature 21 °F -  
Max Temperature 26 °F 31 °F 54 °F (1976)
Min Temperature 12 °F 9 °F -18 °F (1982)
Degree Days  
Heating Degree Days 44    
Moisture  
Dew Point 17 °F    
Average Humidity 81    
Maximum Humidity 93    
Minimum Humidity 49    
Precipitation  
Precipitation 0.03 in - - ()
Sea Level Pressure  
Sea Level Pressure 29.87 in    
Wind  
Wind Speed 7 mph (NW)    
Max Wind Speed 13 mph    
Max Gust Speed 23 mph    
Visibility 5 miles    
Events Snow    
Averages and records for this station are not official NWS values.
T = Trace of Precipitation, MM = Missing Value Source: NWS Daily Summary

Daily Weather History Graph

Daily Weather History Graph

Search for Another Location

Airport or City:

Trip Planner

Search our weather history database for the weather conditions in past years. The results will help you decide how hot, cold, wet, or windy it might be!

Date:

Astronomy

Feb. 25, 2012 Rise Set
Actual Time 7:24 AM EST 6:20 PM EST
Civil Twilight 6:54 AM EST 6:49 PM EST
Nautical Twilight 6:20 AM EST 7:23 PM EST
Astronomical Twilight 5:46 AM EST 7:57 PM EST
Moon 8:35 AM EST (2/25) 10:34 PM EST (2/25)
Length of Visible Light 11h 55m
Length of Day
10h 55m
Waxing Crescent, 13% of the Moon is Illuminated
Feb 25
Waxing Crescent
Feb 29
First Quarter
Mar 8
Full
Mar 14
Last Quarter
Mar 22
New

Hourly Weather History & Observations

Time (EST) Temp. Windchill Dew Point Humidity Pressure Visibility Wind Dir Wind Speed Gust Speed Precip Events Conditions
12:14 AM 24.8 °F 17.9 °F 23.0 °F 93% 29.62 in 2.5 mi Variable 5.8 mph - 0.00 in Snow Light Snow
12:32 AM 24.8 °F 17.9 °F 21.2 °F 86% 29.62 in 2.0 mi WNW 5.8 mph - 0.00 in Snow Light Snow
12:37 AM 24.8 °F 15.3 °F 23.0 °F 93% 29.62 in 1.8 mi WNW 9.2 mph - 0.00 in Snow Light Snow
12:44 AM 24.8 °F 16.1 °F 23.0 °F 93% 29.63 in 1.5 mi NW 8.1 mph - 0.00 in Snow Light Snow
12:53 AM 25.0 °F 16.3 °F 21.9 °F 88% 29.68 in 1.5 mi NW 8.1 mph - 0.00 in Snow Light Snow
1:04 AM 24.8 °F 16.1 °F 21.2 °F 86% 29.63 in 2.0 mi WNW 8.1 mph - 0.00 in Snow Light Snow
1:14 AM 24.8 °F 16.1 °F 21.2 °F 86% 29.63 in 2.5 mi NW 8.1 mph - 0.00 in Snow Light Snow
1:33 AM 24.8 °F 19.1 °F 23.0 °F 93% 29.64 in 1.2 mi Variable 4.6 mph - 0.00 in Snow Light Snow
1:53 AM 25.0 °F 19.3 °F 23.0 °F 92% 29.70 in 1.0 mi Variable 4.6 mph - 0.01 in Snow Light Snow
2:10 AM 24.8 °F 17.9 °F 23.0 °F 93% 29.65 in 0.8 mi Variable 5.8 mph - 0.01 in Snow Light Snow
2:26 AM 24.8 °F 16.1 °F 21.2 °F 86% 29.65 in 1.2 mi NW 8.1 mph - 0.01 in Snow Light Snow
2:53 AM 24.1 °F 19.7 °F 21.9 °F 91% 29.71 in 1.5 mi Variable 3.5 mph - 0.01 in Snow Light Snow
3:33 AM 24.8 °F 19.1 °F 21.2 °F 86% 29.66 in 2.0 mi Variable 4.6 mph - 0.01 in Snow Light Snow
3:42 AM 24.8 °F 20.5 °F 21.2 °F 86% 29.67 in 1.8 mi Variable 3.5 mph - 0.01 in Snow Light Snow
3:53 AM 24.1 °F 19.7 °F 21.9 °F 91% 29.73 in 1.5 mi NW 3.5 mph - 0.01 in Snow Light Snow
4:15 AM 24.8 °F 16.9 °F 21.2 °F 86% 29.68 in 2.5 mi Variable 6.9 mph - 0.00 in Snow Light Snow
4:36 AM 24.8 °F 16.1 °F 21.2 °F 86% 29.69 in 1.5 mi NW 8.1 mph - 0.00 in Snow Light Snow
4:53 AM 23.0 °F 15.8 °F 21.0 °F 92% 29.75 in 1.5 mi Variable 5.8 mph 18.4 mph 0.00 in Snow Light Snow
5:12 AM 23.0 °F 15.8 °F 19.4 °F 86% 29.70 in 2.0 mi Variable 5.8 mph - 0.00 in Snow Light Snow
5:30 AM 23.0 °F 14.7 °F 19.4 °F 86% 29.71 in 3.0 mi Variable 6.9 mph - 0.00 in Snow Light Snow
5:37 AM 23.0 °F 15.8 °F 19.4 °F 86% 29.71 in 2.5 mi NW 5.8 mph - 0.00 in Snow Light Snow
5:42 AM 23.0 °F 13.1 °F 19.4 °F 86% 29.72 in 3.0 mi WNW 9.2 mph - 0.00 in Snow Light Snow
5:53 AM 21.9 °F 15.7 °F 19.9 °F 92% 29.78 in 1.8 mi Variable 4.6 mph - 0.00 in Snow Light Snow
6:07 AM 21.2 °F 10.1 °F 19.4 °F 93% 29.73 in 2.0 mi NW 10.4 mph 16.1 mph 0.00 in Snow Light Snow
6:16 AM 21.2 °F 12.6 °F 19.4 °F 93% 29.73 in 1.8 mi NW 6.9 mph 16.1 mph 0.00 in Snow Light Snow
6:42 AM 21.2 °F 12.6 °F 19.4 °F 93% 29.74 in 2.5 mi Variable 6.9 mph - 0.01 in Snow Light Snow
6:56 AM 21.2 °F 10.9 °F 19.4 °F 93% 29.75 in 3.0 mi NNW 9.2 mph - 0.00 in Snow Light Snow
7:49 AM 19.4 °F 7.2 °F 15.8 °F 86% 29.79 in 10.0 mi NW 11.5 mph 18.4 mph 0.00 in   Mostly Cloudy
7:53 AM 19.9 °F 10.1 °F 14.0 °F 78% 29.85 in 10.0 mi NW 8.1 mph 17.3 mph 0.00 in   Mostly Cloudy
8:53 AM 19.9 °F 10.1 °F 12.9 °F 74% 29.90 in 10.0 mi NW 8.1 mph 16.1 mph N/A   Clear
9:53 AM 21.0 °F 11.4 °F 12.0 °F 68% 29.93 in 10.0 mi WNW 8.1 mph 16.1 mph N/A   Partly Cloudy
10:53 AM 21.9 °F 13.4 °F 12.0 °F 66% 29.96 in 10.0 mi Variable 6.9 mph 18.4 mph 0.00 in   Clear
11:53 AM 23.0 °F 11.1 °F 10.0 °F 58% 29.99 in 8.0 mi NNW 12.7 mph 20.7 mph N/A   Clear
12:53 PM 24.1 °F 13.1 °F 10.0 °F 55% 30.02 in 9.0 mi WNW 11.5 mph 20.7 mph N/A   Clear
2:53 PM 26.1 °F 15.0 °F 9.0 °F 49% 30.06 in 10.0 mi NW 12.7 mph 19.6 mph N/A   Clear
3:53 PM 25.0 °F 14.8 °F 10.0 °F 53% 30.09 in 10.0 mi WNW 10.4 mph 23.0 mph N/A   Scattered Clouds
5:53 PM 23.0 °F 13.1 °F 12.0 °F 63% 30.15 in 10.0 mi WNW 9.2 mph 18.4 mph N/A   Overcast
6:53 PM 21.9 °F 17.2 °F 12.9 °F 68% 30.18 in 10.0 mi Variable 3.5 mph - N/A   Overcast
7:38 PM 21.2 °F 11.7 °F 12.2 °F 68% 30.12 in 10.0 mi NNW 8.1 mph - N/A   Overcast
7:53 PM 21.0 °F 14.6 °F 14.0 °F 74% 30.20 in 10.0 mi Variable 4.6 mph - N/A   Overcast
8:53 PM 21.0 °F 16.2 °F 12.9 °F 71% 30.23 in 10.0 mi Variable 3.5 mph - N/A   Overcast
9:18 PM 19.4 °F 14.3 °F 12.2 °F 74% 30.17 in 10.0 mi NW 3.5 mph - N/A   Scattered Clouds
9:29 PM 19.4 °F 12.8 °F 12.2 °F 74% 30.17 in 10.0 mi NW 4.6 mph - N/A   Mostly Cloudy
9:53 PM 19.9 °F 14.9 °F 12.0 °F 71% 30.25 in 10.0 mi NW 3.5 mph - N/A   Overcast
10:40 PM 17.6 °F - 12.2 °F 79% 30.20 in 10.0 mi Calm Calm - N/A   Scattered Clouds
10:53 PM 16.0 °F - 12.0 °F 84% 30.28 in 10.0 mi Calm Calm - N/A   Mostly Cloudy
11:13 PM 17.6 °F - 12.2 °F 79% 30.21 in 10.0 mi Calm Calm - N/A   Scattered Clouds
11:53 PM 12.9 °F - 9.0 °F 84% 30.30 in 10.0 mi Calm Calm - N/A   Mostly Cloudy